Salt Lake City, UT

7:59 AM MDT on May 27, 2017 (GMT -0600)
Salt Lake City International

Weather History for KSLC - September, 2012

Change the Weather History Date:

Sunday, September 16, 2012

  Actual Average Record
Temperature  
Mean Temperature 74 °F 66 °F  
Max Temperature 89 °F 79 °F 95 °F (2000)
Min Temperature 58 °F 53 °F 33 °F (1936)
Degree Days  
Heating Degree Days 0 3  
Month to date heating degree days 0 22  
Since 1 July heating degree days 0 27  
Cooling Degree Days 9 3  
Month to date cooling degree days 114 89  
Year to date cooling degree days 1557 1125  
Growing Degree Days 23 (Base 50)    
Moisture  
Dew Point 33 °F    
Average Humidity 27    
Maximum Humidity 44    
Minimum Humidity 10    
Precipitation  
Precipitation 0.00 in 0.04 in 0.93 in (2015)
Month to date precipitation 0.42 0.56  
Year to date precipitation 7.96 11.07  
Snow  
Snow 0.00 in 0.00 in T in (1946)
Month to date snowfall 0.0 0.0  
Since 1 July snowfall 0.0 0.0  
Snow Depth 0.00 in    
Sea Level Pressure  
Sea Level Pressure 29.95 in    
Wind  
Wind Speed 9 mph (SE)    
Max Wind Speed 15 mph    
Max Gust Speed 20 mph    
Visibility 10 miles    
Events      
T = Trace of Precipitation, MM = Missing Value Source: NWS Daily Summary

Daily Weather History Graph

Daily Weather History Graph

Search for Another Location

Airport or City:

Trip Planner

Search our weather history database for the weather conditions in past years. The results will help you decide how hot, cold, wet, or windy it might be!

Date:

Astronomy

Sep. 16, 2012 Rise Set
Actual Time 7:10 AM MDT 7:34 PM MDT
Civil Twilight 6:42 AM MDT 8:01 PM MDT
Nautical Twilight 6:10 AM MDT 8:33 PM MDT
Astronomical Twilight 5:37 AM MDT 9:06 PM MDT
Moon 7:54 AM MDT (9/16) 7:40 PM MDT (9/16)
Length of Visible Light 13h 19m
Length of Day
12h 24m
New Moon, 1% of the Moon is Illuminated
Sep 16
New Moon
Sep 22
First Quarter
Sep 29
Full
Oct 8
Last Quarter
Oct 15
New

Hourly Weather History & Observations

Time (MDT) Temp. Dew Point Humidity Pressure Visibility Wind Dir Wind Speed Gust Speed Precip Events Conditions
12:53 AM 64.9 °F 34.0 °F 32% 29.96 in 10.0 mi South 8.1 mph - N/A   Partly Cloudy
1:53 AM 64.9 °F 34.0 °F 32% 29.95 in 10.0 mi South 5.8 mph - N/A   Clear
2:53 AM 62.1 °F 33.1 °F 34% 29.96 in 10.0 mi SE 4.6 mph - N/A   Clear
3:53 AM 61.0 °F 34.0 °F 36% 29.95 in 10.0 mi SE 6.9 mph - N/A   Clear
4:53 AM 60.1 °F 35.1 °F 39% 29.96 in 10.0 mi ESE 10.4 mph - N/A   Partly Cloudy
5:53 AM 59.0 °F 35.6 °F 42% 30.12 in 10.0 mi SE 8.1 mph - N/A   Partly Cloudy
6:53 AM 57.9 °F 35.1 °F 42% 29.99 in 10.0 mi South 6.9 mph - N/A   Partly Cloudy
7:53 AM 59.0 °F 37.9 °F 46% 30.01 in 10.0 mi SSE 6.9 mph - N/A   Scattered Clouds
8:53 AM 68.0 °F 32.0 °F 26% 30.02 in 10.0 mi ESE 10.4 mph - N/A   Scattered Clouds
9:53 AM 71.1 °F 35.1 °F 27% 30.03 in 10.0 mi South 9.2 mph - N/A   Scattered Clouds
10:53 AM 75.0 °F 32.0 °F 21% 30.01 in 10.0 mi SSE 8.1 mph - N/A   Scattered Clouds
11:53 AM 81.0 °F 35.1 °F 19% 29.99 in 10.0 mi SSE 6.9 mph - N/A   Scattered Clouds
12:53 PM 84.9 °F 28.0 °F 13% 29.97 in 10.0 mi South 9.2 mph - N/A   Scattered Clouds
1:53 PM 86.0 °F 25.0 °F 11% 29.94 in 10.0 mi Variable 3.5 mph - N/A   Scattered Clouds
2:53 PM 89.1 °F 25.0 °F 10% 29.92 in 10.0 mi West 5.8 mph - N/A   Scattered Clouds
3:53 PM 86.0 °F 33.1 °F 15% 29.91 in 10.0 mi NNW 11.5 mph - N/A   Scattered Clouds
4:53 PM 86.0 °F 28.9 °F 13% 29.91 in 10.0 mi NW 9.2 mph - N/A   Scattered Clouds
5:53 PM 84.9 °F 26.1 °F 12% 29.90 in 10.0 mi NE 6.9 mph - N/A   Scattered Clouds
6:53 PM 82.0 °F 28.0 °F 14% 29.90 in 10.0 mi NE 5.8 mph - N/A   Scattered Clouds
7:53 PM 79.0 °F 30.0 °F 17% 29.90 in 10.0 mi Calm Calm - N/A   Scattered Clouds
8:53 PM 73.0 °F 35.1 °F 25% 29.89 in 10.0 mi SSW 4.6 mph - N/A   Scattered Clouds
9:53 PM 72.0 °F 33.1 °F 24% 29.89 in 10.0 mi SE 8.1 mph - N/A   Mostly Cloudy
10:36 PM 73.4 °F 37.4 °F 27% 30.05 in 10.0 mi North 15.0 mph - N/A   Mostly Cloudy
10:53 PM 72.0 °F 39.9 °F 31% 29.91 in 10.0 mi North 12.7 mph - N/A   Mostly Cloudy
11:53 PM 70.0 °F 37.9 °F 31% 29.91 in 10.0 mi WNW 6.9 mph - N/A   Mostly Cloudy